Find Starlink 38263

NORAD ID: 100264 Int'l Des: 2026-181 Owner: SPXS Country: US Constellation: starlink operational

Current View

Loading 3D Globe...

About Starlink 38263

Starlink 38263 (NORAD 100264) is a starlink constellation satellite launched Aug 8, 2026 by SPXS of US. with a mass of 575.00 kg.

Upcoming Passes

Passes for default location (London). Set your location on the main map for personalized predictions.

Altitude History

Loading altitude history...

Two-Line Element Set

1 A0264U 26181U 26255.11798735 .00105518 00000-0 69925-3 0 9995
2 A0264 97.2841 298.3439 0001529 19.2560 340.8763 15.75201531 6639
Epoch: Sep 12, 2026 • Age: 14 hours

Current Status

Altitude 353.4 km
Apogee / Perigee N/A
Velocity 7.70 km/s
Sub-Earth Point 60.92°N, 41.84°E
Launch Date Aug 8, 2026
Age 35 days
Type internet

Technical Details

Classification Payload
Mass 575.00 kg
Dry Mass 530.00 kg
Total Mass 575.00 kg
Length 0.30 m
Diameter 4.10 m
Span 29.00 m
Shape Box + pan
Manufacturer SPXS
Bus Type Starlink V2MO
Phase Status In Orbit
Owner/State SPXS/US

Most Searched